Location: Alvediston
(51.0078°N, 2.0364°W)
Time: 05:36:08
(UTC+00:00)

CZ-2C R/B - Pass Details

Date: 27 February 2020
Orbit: 784 x 871 km, 98.3° (Epoch: 09 April)

Event Time Altitude Azimuth Distance (km) Brightness Sun altitude
Rises 20:33:23 0° 15° (NNE) 3,440 6.0 -26.9°
Reaches altitude 10° 20:35:49 10° 18° (NNE) 2,488 5.2 -27.3°
Enters shadow 20:38:39 31° 26° (NNE) 1,448 3.8 -27.7°
